FW5165 Weather Reports


Display with metric or nautical units.
time (UTC)temp
F
wind
direction
speed
MPH
gust
MPH
rain 1hr
in
rain 24hr
in
rain mn
in
humidity
%
barometer
mb
20260904214031 72 360 6.0 12.0 0.00 0.14 0.05 54 1015.3
20260904213533 72 360 3.0 14.0 0.00 0.14 0.05 54 1015.2
20260904213030 72 360 6.0 14.0 0.00 0.14 0.05 52 1015.3
20260904212530 72 220 6.0 13.0 0.00 0.14 0.05 55 1015.2
20260904212028 71 235 3.0 16.0 0.00 0.14 0.05 55 1015.2
20260904211527 70 190 11.0 16.0 0.00 0.14 0.05 57 1015.2
20260904211031 71 194 10.0 15.0 0.00 0.14 0.05 57 1015.2
20260904210531 70 219 9.0 16.0 0.00 0.14 0.05 56 1015.2
20260904210033 70 227 9.0 16.0 0.00 0.14 0.05 57 1015.3
20260904205526 70 209 7.0 18.0 0.00 0.14 0.05 59 1015.3
20260904205028 70 251 9.0 18.0 0.00 0.14 0.05 58 1015.2
20260904204526 71 205 5.0 13.0 0.00 0.14 0.05 59 1015.2
20260904204026 69 233 7.0 13.0 0.00 0.14 0.05 59 1015.2
20260904203525 69 269 5.0 13.0 0.00 0.14 0.05 57 1015.2
20260904203024 69 219 8.0 14.0 0.00 0.14 0.05 59 1015.4
20260904202523 69 216 8.0 14.0 0.00 0.14 0.05 57 1015.3
20260904202027 70 222 5.0 16.0 0.00 0.14 0.05 60 1015.2
20260904201523 70 190 10.0 16.0 0.00 0.14 0.05 58 1015.3
20260904201023 70 194 8.0 15.0 0.00 0.14 0.05 59 1015.2
20260904200523 69 198 3.0 11.0 0.00 0.14 0.05 60 1015.2
20260904200031 69 155 7.0 11.0 0.00 0.14 0.05 59 1015.3
20260904195521 69 172 3.0 18.0 0.00 0.14 0.05 65 1015.4
20260904195022 69 150 9.0 18.0 0.00 0.14 0.05 63 1015.5
20260904194619 68 155 4.0 11.0 0.00 0.14 0.05 63 1015.4
20260904194019 68 153 7.0 13.0 0.00 0.14 0.05 59 1015.6
20260904193522 69 198 8.0 13.0 0.00 0.14 0.05 61 1015.6
20260904193018 68 174 5.0 9.0 0.00 0.14 0.05 67 1015.6
20260904192517 67 153 4.0 10.0 0.00 0.14 0.05 64 1015.7
20260904192017 67 178 6.0 12.0 0.00 0.14 0.05 65 1015.8
20260904191517 67 157 3.0 10.0 0.00 0.14 0.05 69 1015.7
20260904191017 67 151 3.0 10.0 0.00 0.14 0.05 67 1015.7
20260904190516 67 150 7.0 10.0 0.00 0.14 0.05 67 1015.9
20260904190014 67 169 6.0 11.0 0.00 0.14 0.05 68 1015.9
20260904185513 67 170 5.0 11.0 0.00 0.14 0.05 68 1015.9
20260904185012 66 360 2.0 9.0 0.00 0.14 0.05 69 1015.9
20260904184513 65 217 3.0 11.0 0.00 0.14 0.05 72 1015.9
20260904184011 66 174 6.0 11.0 0.00 0.14 0.05 70 1016.0
20260904183512 65 184 5.0 10.0 0.00 0.14 0.05 72 1015.9
20260904183010 65 172 5.0 10.0 0.00 0.14 0.05 74 1015.9
20260904182512 65 171 5.0 9.0 0.00 0.14 0.05 73 1015.9
20260904182009 65 165 4.0 10.0 0.00 0.14 0.05 75 1016.1
20260904181509 64 146 5.0 11.0 0.00 0.14 0.05 71 1016.0
20260904181008 64 214 7.0 9.0 0.00 0.14 0.05 71 1016.1
20260904180508 65 157 2.0 12.0 0.00 0.14 0.05 74 1016.0
20260904180008 65 142 7.0 12.0 0.00 0.14 0.05 72 1016.1
20260904175506 65 148 7.0 12.0 0.00 0.14 0.05 74 1016.1
20260904175007 64 155 7.0 12.0 0.00 0.14 0.05 74 1016.0
20260904174504 64 165 8.0 14.0 0.00 0.14 0.05 76 1016.0
20260904174003 64 137 7.0 14.0 0.00 0.14 0.05 79 1016.0
20260904173503 64 178 8.0 12.0 0.00 0.14 0.05 81 1016.0
20260904173000 63 140 8.0 12.0 0.00 0.14 0.05 81 1015.9
20260904172600 63 211 7.0 12.0 0.01 0.14 0.05 81 1015.8
20260904172100 63 186 7.0 11.0 0.01 0.14 0.05 83 1015.7
20260904172000 63 190 6.0 11.0 0.01 0.14 0.05 83 1015.7
20260904171558 63 153 8.0 11.0 0.01 0.14 0.05 82 1015.7
20260904171057 63 170 5.0 9.0 0.01 0.14 0.05 84 1015.7
20260904170557 63 186 7.0 11.0 0.01 0.14 0.05 83 1015.6
20260904170056 62 140 7.0 12.0 0.01 0.14 0.05 84 1015.6
20260904165555 62 142 6.0 12.0 0.01 0.14 0.05 85 1015.5
20260904165054 62 146 7.0 10.0 0.01 0.14 0.05 85 1015.4
20260904164554 62 360 4.0 12.0 0.01 0.14 0.05 87 1015.4
20260904164053 61 360 8.0 12.0 0.01 0.14 0.05 86 1015.5
20260904163552 61 360 6.0 11.0 0.01 0.14 0.05 87 1015.4
20260904163056 62 360 6.0 13.0 0.01 0.14 0.05 87 1015.4
20260904162551 61 360 7.0 10.0 0.00 0.13 0.04 88 1015.3
20260904162051 61 360 7.0 11.0 0.00 0.13 0.04 89 1015.3
20260904161600 60 360 7.0 11.0 0.00 0.13 0.04 90 1015.2
20260904161050 60 360 7.0 10.0 0.00 0.13 0.04 91 1015.2
20260904160549 60 360 6.0 8.0 0.00 0.13 0.04 92 1015.3
20260904160052 60 360 4.0 9.0 0.00 0.13 0.04 92 1015.2
20260904155548 60 164 5.0 8.0 0.00 0.13 0.04 92 1015.3
20260904155048 60 201 4.0 7.0 0.00 0.13 0.04 93 1015.3
20260904154550 59 199 3.0 7.0 0.00 0.13 0.04 93 1015.3
20260904154047 59 183 1.0 7.0 0.00 0.13 0.04 93 1015.1
20260904153547 59 183 3.0 7.0 0.00 0.13 0.04 93 1015.0
20260904153046 59 184 3.0 6.0 0.00 0.13 0.04 93 1015.1
20260904152547 59 170 4.0 9.0 0.00 0.13 0.04 93 1015.1
20260904152046 59 187 5.0 10.0 0.00 0.13 0.04 93 1015.1
20260904151551 59 163 5.0 10.0 0.00 0.13 0.04 94 1015.2
20260904151045 59 213 6.0 9.0 0.00 0.13 0.04 94 1015.1
20260904150546 59 183 6.0 10.0 0.00 0.13 0.04 94 1015.0
20260904150044 59 182 5.0 10.0 0.00 0.13 0.04 94 1014.9
20260904145544 59 175 5.0 10.0 0.00 0.13 0.04 94 1014.9
20260904145043 59 144 7.0 10.0 0.00 0.13 0.04 94 1014.7
20260904144541 59 186 5.0 7.0 0.00 0.13 0.04 94 1014.7
20260904144040 59 189 4.0 7.0 0.00 0.13 0.04 94 1014.7
20260904143540 59 190 4.0 6.0 0.00 0.13 0.04 94 1014.6
20260904143040 59 190 4.0 6.0 0.00 0.13 0.04 94 1014.5
20260904142540 59 194 1.0 6.0 0.00 0.13 0.04 94 1014.5
20260904142039 59 194 2.0 6.0 0.00 0.13 0.04 94 1014.5
20260904141550 59 196 4.0 7.0 0.00 0.13 0.04 94 1014.5
20260904141042 59 194 4.0 7.0 0.00 0.13 0.04 94 1014.4
20260904140536 59 167 2.0 5.0 0.00 0.13 0.04 94 1014.2
20260904140037 59 146 1.0 6.0 0.00 0.13 0.04 94 1014.2
20260904135540 59 158 3.0 7.0 0.00 0.13 0.04 94 1014.2
20260904135037 59 169 5.0 7.0 0.00 0.13 0.04 94 1014.2
20260904134550 59 169 5.0 8.0 0.00 0.13 0.04 94 1014.0
20260904134033 59 180 5.0 8.0 0.00 0.13 0.04 94 1014.0
20260904133533 60 163 3.0 6.0 0.00 0.13 0.04 94 1013.9
20260904133035 60 169 1.0 4.0 0.00 0.13 0.04 94 1013.9
20260904132535 60 169 2.0 5.0 0.00 0.13 0.04 94 1013.9
20260904132032 60 180 2.0 7.0 0.00 0.13 0.04 94 1013.9
20260904131532 60 190 2.0 7.0 0.00 0.13 0.04 94 1013.9
20260904131030 60 174 3.0 7.0 0.00 0.13 0.04 94 1013.7
20260904130530 60 185 4.0 7.0 0.00 0.13 0.04 94 1013.8
20260904130029 60 171 4.0 7.0 0.00 0.13 0.04 94 1013.7
20260904125532 60 182 4.0 6.0 0.00 0.13 0.04 94 1013.7
20260904125026 60 186 4.0 6.0 0.00 0.13 0.04 94 1013.7
20260904124526 60 182 2.0 6.0 0.00 0.13 0.04 94 1013.6
20260904124026 60 184 3.0 6.0 0.00 0.13 0.04 94 1013.5
20260904123525 60 183 4.0 7.0 0.00 0.13 0.04 94 1013.6
20260904123024 60 192 3.0 7.0 0.00 0.13 0.04 94 1013.4
20260904122524 60 178 3.0 8.0 0.00 0.13 0.04 94 1013.4
20260904122024 60 204 5.0 9.0 0.00 0.13 0.04 94 1013.4
20260904121523 60 161 5.0 9.0 0.00 0.13 0.04 94 1013.3
20260904121022 60 157 4.0 8.0 0.00 0.13 0.04 94 1013.3
20260904120522 60 157 3.0 7.0 0.00 0.13 0.04 94 1013.2
20260904120022 60 141 4.0 7.0 0.00 0.13 0.04 94 1013.2
20260904115521 60 156 0.0 4.0 0.00 0.13 0.04 94 1013.2
20260904115021 60 156 0.0 7.0 0.00 0.13 0.04 94 1013.1
20260904114522 60 157 1.0 7.0 0.00 0.13 0.04 94 1013.2
20260904114022 60 156 4.0 6.0 0.00 0.13 0.04 94 1013.2
20260904113520 60 151 4.0 5.0 0.00 0.13 0.04 94 1013.2
20260904113020 60 164 4.0 6.0 0.00 0.13 0.04 94 1013.1
20260904112520 60 156 4.0 6.0 0.00 0.13 0.04 94 1013.2
20260904112019 60 196 1.0 3.0 0.00 0.13 0.04 94 1013.2
20260904111519 60 196 2.0 5.0 0.00 0.13 0.04 94 1013.1
20260904111018 60 207 2.0 5.0 0.00 0.13 0.04 94 1013.2
20260904110518 61 188 2.0 6.0 0.00 0.13 0.04 94 1013.2
20260904110018 61 185 3.0 7.0 0.00 0.13 0.04 94 1013.2
20260904105520 61 184 3.0 7.0 0.00 0.13 0.04 94 1013.0
20260904105017 61 178 3.0 5.0 0.00 0.13 0.04 94 1013.1
20260904104517 61 175 3.0 6.0 0.00 0.13 0.04 94 1013.1
20260904104016 61 172 4.0 7.0 0.00 0.13 0.04 94 1013.0
20260904103518 61 175 3.0 7.0 0.00 0.13 0.04 94 1013.0
20260904103020 61 174 3.0 5.0 0.00 0.13 0.04 94 1013.0
20260904102516 61 221 2.0 7.0 0.00 0.13 0.04 94 1013.0
20260904102015 61 197 3.0 8.0 0.00 0.13 0.04 94 1013.0
20260904101514 61 162 4.0 8.0 0.01 0.13 0.04 94 1012.9
20260904101018 61 159 4.0 7.0 0.01 0.13 0.04 94 1012.8
20260904100516 61 173 3.0 6.0 0.01 0.13 0.04 94 1012.9
20260904100014 61 182 3.0 6.0 0.01 0.13 0.04 94 1013.0
20260904095518 61 192 3.0 6.0 0.01 0.13 0.04 94 1012.9
20260904095013 61 173 2.0 6.0 0.01 0.13 0.04 94 1012.7
20260904094525 61 159 3.0 6.0 0.02 0.13 0.04 94 1012.7
20260904094013 61 170 3.0 5.0 0.02 0.13 0.04 94 1012.7
20260904093513 61 175 1.0 5.0 0.02 0.13 0.04 94 1012.7
20260904093017 61 171 2.0 8.0 0.02 0.13 0.04 94 1012.7
20260904092516 61 156 5.0 8.0 0.03 0.13 0.04 94 1012.6
20260904092013 61 146 6.0 10.0 0.03 0.13 0.04 94 1012.6
20260904091513 61 180 6.0 10.0 0.02 0.12 0.03 94 1012.7
20260904091011 61 169 6.0 10.0 0.02 0.12 0.03 94 1012.7
20260904090512 61 169 6.0 9.0 0.02 0.12 0.03 94 1012.7
20260904090029 62 173 4.0 9.0 0.02 0.12 0.03 94 1012.8
20260904085511 62 147 4.0 8.0 0.02 0.12 0.03 94 1012.7
20260904085011 62 162 4.0 7.0 0.02 0.12 0.03 94 1012.8
20260904084511 62 159 4.0 7.0 0.01 0.11 0.02 94 1012.8
20260904084013 62 176 4.0 8.0 0.01 0.11 0.02 94 1012.8
20260904083509 62 171 5.0 8.0 0.01 0.11 0.02 93 1012.9
20260904083009 62 188 5.0 8.0 0.01 0.11 0.02 93 1013.0
20260904082509 62 177 4.0 8.0 0.00 0.10 0.01 93 1013.0
20260904082008 62 157 4.0 8.0 0.00 0.10 0.01 94 1012.9
20260904081510 62 160 5.0 10.0 0.00 0.10 0.01 94 1012.8
20260904081008 62 157 6.0 10.0 0.00 0.10 0.01 94 1012.8
20260904080508 62 169 6.0 9.0 0.01 0.10 0.01 94 1012.8
20260904080009 62 155 4.0 8.0 0.01 0.10 0.01 94 1012.9
20260904075506 62 142 6.0 10.0 0.01 0.10 0.01 94 1012.9
20260904075005 62 155 5.0 10.0 0.01 0.10 0.01 94 1012.9
20260904074505 62 155 4.0 8.0 0.01 0.10 0.01 94 1012.9
20260904074004 61 147 5.0 7.0 0.01 0.10 0.01 94 1012.9
20260904073504 61 172 0.0 3.0 0.01 0.10 0.01 94 1012.9
20260904073003 61 174 1.0 4.0 0.02 0.10 0.01 94 1012.9
20260904072503 61 171 1.0 4.0 0.02 0.10 0.01 94 1012.9
20260904072005 61 175 1.0 3.0 0.02 0.10 0.01 94 1012.9
20260904071502 61 179 0.0 2.0 0.02 0.10 0.01 94 1012.9
20260904071002 61 179 0.0 1.0 0.02 0.10 0.01 94 1013.0
20260904070504 61 179 0.0 1.0 0.01 0.09 0.00 94 1013.0
20260904070117 61 179 0.0 1.0 0.01 0.09 0.00 94 1013.0
20260904065602 61 179 0.0 1.0 0.01 0.09 0.09 94 1013.0
20260904065059 61 179 0.0 1.0 0.01 0.09 0.09 94 1013.0
20260904064559 61 179 0.0 1.0 0.01 0.09 0.09 94 1013.0
20260904064059 61 179 0.0 1.0 0.01 0.09 0.09 94 1013.0
20260904063559 61 179 0.0 1.0 0.02 0.09 0.09 94 1013.1
20260904063107 61 179 0.0 2.0 0.01 0.08 0.08 94 1013.1
20260904062601 61 179 0.0 4.0 0.01 0.08 0.08 94 1013.0
20260904062059 61 179 1.0 4.0 0.02 0.08 0.08 93 1013.1
20260904061601 61 268 1.0 2.0 0.02 0.08 0.08 94 1013.1
20260904061101 61 272 0.0 2.0 0.03 0.08 0.08 93 1013.1
20260904060603 61 272 0.0 1.0 0.04 0.08 0.08 93 1013.1
20260904060059 61 272 0.0 2.0 0.04 0.08 0.08 93 1013.1
20260904055557 60 272 0.0 2.0 0.05 0.08 0.08 94 1013.2
20260904055057 60 273 0.0 2.0 0.05 0.08 0.08 93 1013.2
20260904054558 60 273 0.0 2.0 0.05 0.08 0.08 93 1013.1
20260904054058 60 273 0.0 4.0 0.05 0.08 0.08 93 1013.2
20260904053557 60 273 1.0 4.0 0.05 0.07 0.07 93 1013.2
20260904053104 60 271 0.0 4.0 0.05 0.07 0.07 93 1013.2
20260904052557 60 271 0.0 4.0 0.05 0.07 0.07 93 1013.3
20260904052058 61 271 0.0 6.0 0.04 0.06 0.06 93 1013.4
20260904051557 61 271 1.0 7.0 0.03 0.05 0.05 93 1013.4
20260904051057 61 271 3.0 8.0 0.03 0.05 0.05 92 1013.4
20260904050555 61 271 4.0 8.0 0.02 0.04 0.04 92 1013.4
20260904050058 61 238 1.0 5.0 0.02 0.04 0.04 92 1013.2
20260904045556 61 145 0.0 1.0 0.02 0.03 0.03 93 1013.2
20260904045055 61 145 0.0 4.0 0.02 0.03 0.03 92 1013.1
20260904044555 61 145 0.0 4.0 0.02 0.03 0.03 92 1013.2
20260904044054 61 145 0.0 2.0 0.02 0.03 0.03 93 1013.1
20260904043554 61 145 0.0 2.0 0.01 0.02 0.02 93 1013.1
20260904043100 61 145 0.0 2.0 0.01 0.02 0.02 92 1013.1
20260904042557 61 145 0.0 4.0 0.01 0.02 0.02 92 1013.1
20260904042054 61 144 0.0 4.0 0.01 0.02 0.02 92 1013.0
20260904041554 61 150 1.0 4.0 0.01 0.02 0.02 92 1013.0
20260904041053 61 157 0.0 2.0 0.01 0.02 0.02 92 1012.9
20260904040553 61 157 0.0 5.0 0.02 0.02 0.02 91 1013.1
20260904040105 61 157 3.0 5.0 0.02 0.02 0.02 91 1013.1
20260904035553 61 251 1.0 3.0 0.01 0.01 0.01 91 1013.2
20260904035055 61 288 1.0 4.0 0.01 0.01 0.01 91 1013.3
20260904034553 61 303 0.0 1.0 0.01 0.01 0.01 91 1013.2
20260904034052 61 303 0.0 1.0 0.01 0.01 0.01 91 1013.1
20260904033553 61 303 0.0 1.0 0.01 0.01 0.01 91 1013.0
20260904033051 61 303 0.0 5.0 0.01 0.01 0.01 90 1012.9
20260904032551 61 303 1.0 5.0 0.01 0.01 0.01 90 1013.0
20260904032051 61 288 1.0 4.0 0.01 0.01 0.01 90 1013.0
20260904031556 61 287 0.0 2.0 0.01 0.01 0.01 89 1013.0
20260904031051 61 287 1.0 2.0 0.01 0.01 0.01 89 1013.0
20260904030551 61 286 0.0 5.0 0.00 0.00 0.00 89 1013.1
20260904030053 61 286 0.0 7.0 0.00 0.00 0.00 88 1013.0
20260904025550 62 304 2.0 7.0 0.00 0.00 0.00 87 1013.1
20260904025049 63 296 3.0 7.0 0.00 0.00 0.00 86 1013.1
20260904024549 64 329 4.0 9.0 0.00 0.00 0.00 86 1013.0
20260904024049 65 360 1.0 7.0 0.00 0.00 0.00 84 1013.1
20260904023550 65 360 1.0 7.0 0.00 0.00 0.00 82 1013.0
20260904023047 66 360 2.0 9.0 0.00 0.00 0.00 81 1013.0
20260904022547 66 360 2.0 9.0 0.00 0.00 0.00 80 1013.0
20260904022046 66 360 2.0 10.0 0.00 0.00 0.00 80 1012.9
20260904021546 66 360 6.0 10.0 0.00 0.00 0.00 79 1013.0
20260904021046 66 257 2.0 7.0 0.00 0.00 0.00 79 1012.9
20260904020548 66 275 2.0 5.0 0.00 0.00 0.00 79 1013.0
20260904020048 66 265 2.0 7.0 0.00 0.00 0.00 79 1012.9
20260904015545 66 262 2.0 8.0 0.00 0.00 0.00 79 1012.9
20260904015045 66 241 5.0 8.0 0.00 0.00 0.00 79 1013.0
20260904014552 67 227 3.0 9.0 0.00 0.00 0.00 78 1013.0
20260904014045 67 221 5.0 10.0 0.00 0.00 0.00 77 1013.0
20260904013544 67 267 6.0 10.0 0.00 0.00 0.00 77 1013.0
20260904013047 68 271 4.0 12.0 0.00 0.00 0.00 75 1013.0
20260904012547 68 229 7.0 12.0 0.00 0.00 0.00 74 1013.1
20260904012045 68 225 6.0 9.0 0.00 0.00 0.00 73 1013.0
20260904011546 68 246 3.0 12.0 0.00 0.00 0.00 73 1013.0
20260904011043 69 242 5.0 12.0 0.00 0.00 0.00 72 1013.0
20260904010544 69 265 6.0 13.0 0.00 0.00 0.00 72 1013.0
20260904010043 69 248 7.0 13.0 0.00 0.00 0.00 71 1013.0
20260904005541 69 231 7.0 12.0 0.00 0.00 0.00 71 1013.2
20260904005042 69 235 7.0 12.0 0.00 0.00 0.00 71 1013.1
20260904004541 69 221 4.0 11.0 0.00 0.00 0.00 71 1013.2
20260904004041 69 229 6.0 9.0 0.00 0.00 0.00 71 1013.2
20260904003541 69 278 5.0 9.0 0.00 0.00 0.00 70 1013.2
20260904003042 69 240 6.0 10.0 0.00 0.00 0.00 70 1013.2
20260904002544 70 182 7.0 10.0 0.00 0.00 0.00 70 1013.1
20260904002040 70 198 5.0 11.0 0.00 0.00 0.00 70 1013.1
20260904001546 70 211 7.0 13.0 0.00 0.00 0.00 70 1013.2
20260904001041 70 190 6.0 13.0 0.00 0.00 0.00 69 1013.2
20260904000540 70 219 8.0 12.0 0.00 0.00 0.00 69 1013.3
20260904000043 70 219 6.0 11.0 0.00 0.00 0.00 69 1013.2
20260903235640 70 212 6.0 13.0 0.00 0.00 0.00 69 1013.2
20260903235038 70 238 8.0 13.0 0.00 0.00 0.00 69 1013.3
20260903234538 70 226 7.0 13.0 0.00 0.00 0.00 70 1013.2
20260903234039 70 217 8.0 12.0 0.00 0.00 0.00 70 1013.3
20260903233547 70 231 6.0 13.0 0.00 0.00 0.00 70 1013.4
20260903233036 70 234 6.0 11.0 0.00 0.00 0.00 69 1013.4
20260903232536 70 237 7.0 12.0 0.00 0.00 0.00 69 1013.4
20260903232035 70 232 5.0 9.0 0.00 0.00 0.00 70 1013.4
20260903231540 70 196 5.0 8.0 0.00 0.00 0.00 70 1013.5
20260903231034 69 202 5.0 8.0 0.00 0.00 0.00 69 1013.5
20260903230533 69 215 5.0 9.0 0.00 0.00 0.00 69 1013.5
20260903230045 70 203 5.0 11.0 0.00 0.00 0.00 69 1013.6
20260903225536 69 190 5.0 9.0 0.00 0.00 0.00 69 1013.7
20260903225032 69 170 5.0 9.0 0.00 0.00 0.00 69 1013.8
20260903224534 70 196 6.0 8.0 0.00 0.00 0.00 69 1013.8
20260903224032 69 182 2.0 7.0 0.00 0.00 0.00 70 1013.7
20260903223531 69 164 2.0 9.0 0.00 0.00 0.00 70 1013.9
20260903223030 69 207 5.0 10.0 0.00 0.00 0.00 69 1014.0
20260903222532 69 185 5.0 11.0 0.00 0.00 0.00 70 1013.9
20260903222031 69 182 6.0 11.0 0.00 0.00 0.00 70 1014.0
20260903221529 69 191 5.0 11.0 0.00 0.00 0.00 70 1014.1
20260903221028 69 174 6.0 11.0 0.00 0.00 0.00 70 1014.2
20260903220527 69 169 5.0 11.0 0.00 0.00 0.00 70 1014.3
20260903220028 69 215 6.0 11.0 0.00 0.00 0.00 71 1014.3
20260903215526 69 217 6.0 11.0 0.00 0.00 0.00 71 1014.3
20260903215025 69 188 7.0 11.0 0.00 0.00 0.00 71 1014.4
20260903214530 69 205 6.0 10.0 0.00 0.00 0.00 70 1014.5